BREEZE-KM DEB, 41720

Orbit data source: Space-Track

BREEZE-KM DEB, 41720 is space debris in LEO originally from a launch on Tue, 31 Mar 2015 UTC launched from the Plesetsk Missile And Space Complex (PKMTR). Debris objects in space refer to the collection of defunct objects orbiting the Earth. Examples of debris include non-operational satellites, rocket bodies, and fragments generated from explosions, collisions, or faulty payload assembly.

Loading next visibility...
BREEZE-KM DEB details
Identifier
41720, 2015-020H
Orbit
LEO
Last TLE update1 day ago
Origin
Flag of CISVVKO VKS (CIS)
ManufacturerKhrunichev
MissionSpacecraft
Bus & MotorUnknown
MassUnknown
Launch date (UTC)
2015-03-31 (10 years ago)
Launch vehicleUnknown
Launch site
Plesetsk Missile And Space Complex (PKMTR)
Object type
Payload
Rocket body
Debris
Shape & HBRUnknown
Radar Cross SectionSmall (<0.1 m²)

Expand to show TLE details & history

TLE from 1 day ago
0 BREEZE-KM DEB
1 41720U 15020H   24360.20606050  .00000041  00000-0  93750-4 0  9999
2 41720  82.4873 160.9197 0230628  85.2477 277.4925 12.90972174449189
Epoch: 2024-12-25T04:56Z
Definitive object data (Epoch: 2024-12-25T04:56:43.627Z)
Latitude0.00005°
Longitude-7.46521°
Altitude1,281.381 km
Speed7.224 km/s
True Right ascension10h 43m 40s
True Declination0° 00' 00"
Sunlit
Object was in daylight at TLE epoch
Visualization TLE readout
Latitude-80.15111°
Longitude-139.24108°
Altitude1,502.793 km
Speed7.03 km/s
Apparent Right ascension23h 56m 24s
Apparent Declination-62° 59' 28"
Sunlit
Object is in daylight
Visualization observer readout
Local Sidereal Time11:24:39
Azimuth189.029° SSW
Elevation-66.442°
Doppler factor1
Orbital elements
Apogee altitude1,471.912 km
Perigee altitude1,117.986 km
Semi-major axis7,673.086 km
Eccentricity0.0230628
Inclination82.4873°
RAAN160.9197°
Arg. of periapsis85.2477°
True anomaly274.8633°
Mean anomaly277.4925°
Eccentric anomaly276.17878°
Mean motion3.22915 °/min
BSTAR0.00009375
Orbital period111.48 mins
Loading maneuver chart data...
Loading historical data...
Loading historical data...
Loading historical data...
Loading historical data...
Loading historical data...
Loading historical data...
Loading historical data...

BREEZE-KM DEB Visibility forecast

Observer location: undefined°, undefined

Span
Click to sort rows by Start time (UTC) header in descending order
Start Az.
Max El. time (UTC)
Max El. Az.
Max El.
End time (UTC)
End Az.
11 mins2024-12-26 12:41:12.489Z227.297° WSW2024-12-26 12:47:12.489Z292.351° WNW28.646°2024-12-26 12:52:12.489Z345.396° N
12 mins2024-12-26 22:28:12.489Z359.686° N2024-12-26 22:33:12.489Z60.204° ENE43.073°2024-12-26 22:40:12.489Z163.69° S
7 mins2024-12-27 00:22:12.489Z307.764° NW2024-12-27 00:25:12.489Z278.743° WNW18.149°2024-12-27 00:29:12.489Z242.44° WSW
12 mins2024-12-27 10:59:12.489Z163.921° S2024-12-27 11:05:12.489Z91.083° ESE38.993°2024-12-27 11:11:12.489Z18.788° NNE
|